Weather History for Erie, CO

Change the Weather History Date:

Wednesday, December 19, 2012

  Actual Average (KBJC) Record (KBJC)
Temperature  
Mean Temperature 15 °F -  
Max Temperature 25 °F 41 °F 60 °F (2004)
Min Temperature 5 °F 21 °F -7 °F (1989)
Degree Days  
Heating Degree Days 50    
Moisture  
Dew Point 13 °F    
Average Humidity 78    
Maximum Humidity 96    
Minimum Humidity 51    
Precipitation  
Precipitation 0.00 in - - ()
Sea Level Pressure  
Sea Level Pressure 29.88 in    
Wind  
Wind Speed 8 mph (North)    
Max Wind Speed 26 mph    
Max Gust Speed 34 mph    
Visibility 8 miles    
Events Snow    
Averages and records for this station are not official NWS values.
T = Trace of Precipitation, MM = Missing Value Source: NWS Daily Summary

Daily Weather History Graph

Daily Weather History Graph

Search for Another Location

Airport:

Trip Planner

Search our weather history database for the weather conditions in past years. The results will help you decide how hot, cold, wet, or windy it might be!

Date:

Astronomy

Dec. 19, 2012 Rise Set
Actual Time 7:17 AM MST 4:37 PM MST
Civil Twilight 6:47 AM MST 5:08 PM MST
Nautical Twilight 6:13 AM MST 5:42 PM MST
Astronomical Twilight 5:40 AM MST 6:15 PM MST
Moon 11:28 AM MST (12/19) No Moon Set
Length of Visible Light 10h 20m
Length of Day
9h 19m
Waxing Crescent, 45% of the Moon is Illuminated
Dec 19
Waxing Crescent
Dec 19
First Quarter
Dec 28
Full
Jan 4
Last Quarter
Jan 11
New

Hourly Weather History & Observations

Time (MST) Temp. Windchill Dew Point Humidity Pressure Visibility Wind Dir Wind Speed Gust Speed Precip Events Conditions
12:14 AM 25.7 °F 18.0 °F 23.4 °F 91% 29.69 in 10.0 mi NNE 6.9 mph - N/A   Overcast
12:34 AM 24.8 °F 19.1 °F 22.8 °F 92% 29.69 in 10.0 mi North 4.6 mph - N/A   Overcast
12:54 AM 24.8 °F 17.9 °F 22.8 °F 92% 29.69 in 10.0 mi North 5.8 mph - N/A   Overcast
1:14 AM 23.4 °F 16.2 °F 21.6 °F 93% 29.68 in 10.0 mi NNW 5.8 mph - N/A   Mostly Cloudy
1:34 AM 22.6 °F 16.5 °F 21.0 °F 93% 29.68 in 10.0 mi NNW 4.6 mph - N/A   Scattered Clouds
1:54 AM 21.9 °F 15.7 °F 20.3 °F 93% 29.69 in 10.0 mi NNW 4.6 mph - N/A   Scattered Clouds
2:14 AM 20.1 °F - 18.7 °F 94% 29.69 in 10.0 mi Calm Calm - N/A   Mostly Cloudy
2:34 AM 22.6 °F 16.5 °F 21.6 °F 96% 29.69 in 10.0 mi NNW 4.6 mph - N/A   Overcast
2:54 AM 24.3 °F 18.4 °F 22.1 °F 91% 29.68 in 10.0 mi NNW 4.6 mph - N/A   Overcast
3:14 AM 24.4 °F 18.6 °F 22.1 °F 91% 29.68 in 10.0 mi NNW 4.6 mph - N/A   Overcast
3:34 AM 24.8 °F 16.9 °F 21.9 °F 89% 29.68 in 10.0 mi North 6.9 mph - N/A   Overcast
3:54 AM 24.8 °F 19.1 °F 21.6 °F 87% 29.68 in 10.0 mi North 4.6 mph - N/A   Overcast
4:14 AM 24.8 °F 16.1 °F 21.2 °F 86% 29.69 in 10.0 mi North 8.1 mph - N/A   Overcast
4:34 AM 24.8 °F 14.0 °F 20.7 °F 84% 29.68 in 10.0 mi North 11.5 mph - N/A   Overcast
4:54 AM 24.8 °F 12.9 °F 20.3 °F 83% 29.68 in 7.0 mi North 13.8 mph - N/A Snow Light Snow
5:14 AM 24.4 °F 13.5 °F 20.5 °F 85% 29.69 in 5.0 mi North 11.5 mph - N/A Snow Light Snow
5:34 AM 24.3 °F 11.7 °F 21.2 °F 88% 29.73 in 3.0 mi North 15.0 mph 19.6 mph N/A Snow Light Snow
5:54 AM 23.5 °F 11.3 °F 21.0 °F 90% 29.75 in 2.5 mi North 13.8 mph 20.7 mph N/A Snow Light Snow
6:14 AM 22.8 °F 10.9 °F 20.7 °F 91% 29.77 in 1.8 mi North 12.7 mph 21.9 mph N/A Snow Light Snow
6:34 AM 22.5 °F 10.5 °F 20.8 °F 93% 29.72 in 1.0 mi NNE 12.7 mph - N/A Snow Snow
6:54 AM 22.1 °F 12.0 °F 20.7 °F 94% 29.75 in 2.0 mi North 9.2 mph - N/A Snow Light Snow
7:14 AM 21.9 °F 9.2 °F 20.3 °F 93% 29.77 in 3.0 mi North 13.8 mph - N/A Snow Light Snow
7:34 AM 21.9 °F 10.4 °F 20.1 °F 93% 29.77 in 2.0 mi North 11.5 mph - N/A Snow Light Snow
7:54 AM 21.9 °F 12.5 °F 20.1 °F 93% 29.79 in 1.5 mi North 8.1 mph - N/A Snow Light Snow
8:14 AM 21.7 °F 9.0 °F 19.9 °F 93% 29.77 in 1.8 mi North 13.8 mph - N/A Snow Light Snow
8:34 AM 21.7 °F 9.0 °F 20.1 °F 93% 29.78 in 1.2 mi North 13.8 mph - N/A Snow Light Snow
8:54 AM 22.1 °F 8.5 °F 20.1 °F 92% 29.80 in 1.2 mi North 16.1 mph - N/A Snow Light Snow
9:14 AM 22.1 °F 8.5 °F 19.4 °F 89% 29.80 in 2.0 mi North 16.1 mph 23.0 mph N/A Snow Light Snow
9:34 AM 21.9 °F 6.9 °F 19.4 °F 90% 29.80 in 1.8 mi North 19.6 mph 25.3 mph N/A Snow Light Snow
9:54 AM 22.1 °F 8.0 °F 19.4 °F 89% 29.83 in 3.0 mi North 17.3 mph 23.0 mph N/A Snow Light Snow
10:14 AM 22.1 °F 7.2 °F 18.0 °F 84% 29.85 in 5.0 mi North 19.6 mph 25.3 mph N/A   Overcast
10:34 AM 21.2 °F 3.9 °F 15.8 °F 80% 29.84 in 10.0 mi NNE 26.5 mph 33.4 mph N/A   Overcast
10:54 AM 21.6 °F 5.3 °F 16.3 °F 80% 29.84 in 10.0 mi North 23.0 mph 31.1 mph N/A   Overcast
11:14 AM 21.7 °F 4.9 °F 15.1 °F 76% 29.85 in 10.0 mi North 25.3 mph 34.5 mph N/A   Overcast
11:34 AM 21.4 °F 6.2 °F 14.0 °F 73% 29.85 in 10.0 mi NNE 19.6 mph 28.8 mph N/A   Overcast
11:54 AM 21.7 °F 7.5 °F 14.2 °F 73% 29.86 in 10.0 mi NNE 17.3 mph 29.9 mph N/A   Overcast
12:14 PM 22.8 °F 9.4 °F 12.2 °F 64% 29.87 in 10.0 mi North 16.1 mph 20.7 mph N/A   Overcast
12:34 PM 22.6 °F 7.9 °F 11.1 °F 61% 29.87 in 10.0 mi NNE 19.6 mph 29.9 mph N/A   Overcast
12:54 PM 22.8 °F 9.4 °F 10.9 °F 60% 29.87 in 10.0 mi NE 16.1 mph 25.3 mph N/A   Overcast
1:14 PM 23.0 °F 9.2 °F 10.6 °F 59% 29.87 in 10.0 mi NNE 17.3 mph 24.2 mph N/A   Overcast
1:34 PM 23.5 °F 10.3 °F 11.1 °F 59% 29.87 in 10.0 mi NE 16.1 mph 23.0 mph N/A   Overcast
1:54 PM 23.9 °F 11.7 °F 11.1 °F 58% 29.88 in 10.0 mi NE 13.8 mph 21.9 mph N/A   Overcast
2:14 PM 24.3 °F 11.2 °F 10.9 °F 57% 29.88 in 10.0 mi NE 16.1 mph 20.7 mph N/A   Overcast
2:34 PM 24.3 °F 13.3 °F 10.4 °F 56% 29.90 in 10.0 mi NE 11.5 mph 18.4 mph N/A   Scattered Clouds
2:54 PM 24.6 °F 16.7 °F 10.9 °F 56% 29.92 in 10.0 mi NNE 6.9 mph - N/A   Clear
3:14 PM 25.0 °F 19.3 °F 10.8 °F 55% 29.94 in 10.0 mi North 4.6 mph - N/A   Clear
3:34 PM 23.9 °F 19.5 °F 9.5 °F 54% 29.95 in 10.0 mi NNE 3.5 mph - N/A   Clear
3:54 PM 23.4 °F 14.3 °F 7.7 °F 51% 29.96 in 10.0 mi North 8.1 mph - N/A   Clear
4:14 PM 21.9 °F 15.7 °F 7.5 °F 54% 29.96 in 10.0 mi North 4.6 mph - N/A   Clear
4:34 PM 21.2 °F - 7.3 °F 55% 29.98 in 10.0 mi Calm Calm - N/A   Clear
4:54 PM 17.2 °F 11.9 °F 7.0 °F 64% 29.99 in 10.0 mi WSW 3.5 mph - N/A   Clear
5:14 PM 14.5 °F 5.7 °F 7.3 °F 73% 29.99 in 10.0 mi SSW 5.8 mph - N/A   Clear
5:34 PM 13.1 °F - 7.3 °F 78% 30.01 in 10.0 mi Calm Calm - N/A   Clear
5:54 PM 12.9 °F 5.2 °F 7.7 °F 80% 30.03 in 10.0 mi SSW 4.6 mph - N/A   Clear
6:14 PM 12.2 °F - 6.4 °F 78% 30.04 in 10.0 mi Calm Calm - N/A   Clear
6:34 PM 9.9 °F - 5.7 °F 83% 30.05 in 10.0 mi Calm Calm - N/A   Clear
6:54 PM 9.3 °F 2.8 °F 5.5 °F 85% 30.06 in 10.0 mi SSE 3.5 mph - N/A   Clear
7:14 PM 9.9 °F - 6.4 °F 86% 30.07 in 10.0 mi Calm Calm - N/A   Clear
7:34 PM 8.2 °F - 4.8 °F 86% 30.07 in 10.0 mi Calm Calm - N/A   Clear
7:54 PM 6.6 °F -2.2 °F 3.6 °F 87% 30.08 in 10.0 mi South 4.6 mph - N/A   Clear
8:14 PM 5.4 °F -1.7 °F 2.5 °F 88% 30.09 in 10.0 mi SSW 3.5 mph - N/A   Clear
8:34 PM 7.7 °F 1.0 °F 3.4 °F 83% 30.09 in 10.0 mi South 3.5 mph - N/A   Clear
8:54 PM 10.6 °F - 2.5 °F 70% 30.09 in 10.0 mi Calm Calm - N/A   Clear
9:14 PM 11.8 °F 1.3 °F 2.3 °F 66% 30.09 in 10.0 mi SSW 6.9 mph - N/A   Clear
9:34 PM 12.0 °F 4.1 °F 1.8 °F 64% 30.08 in 10.0 mi South 4.6 mph - N/A   Clear
9:54 PM 11.5 °F 0.9 °F 1.4 °F 64% 30.09 in 10.0 mi SSW 6.9 mph - N/A   Clear
10:14 PM 9.5 °F - 0.3 °F 66% 30.09 in 10.0 mi Calm Calm - N/A   Clear
10:34 PM 6.8 °F - -0.8 °F 71% 30.10 in 10.0 mi Calm Calm - N/A   Clear
10:54 PM 6.1 °F - -0.2 °F 75% 30.10 in 10.0 mi Calm Calm - N/A   Clear
11:14 PM 9.0 °F 2.4 °F 0.5 °F 69% 30.10 in 10.0 mi SSE 3.5 mph - N/A   Clear
11:34 PM 7.5 °F - -0.2 °F 71% 30.10 in 10.0 mi Calm Calm - N/A   Clear
11:54 PM 9.9 °F - 0.5 °F 66% 30.10 in 10.0 mi Calm Calm - N/A   Clear